When you browse on this site, cookies collect data to enhance your experience and personalize the content and advertising you see.
Visit our Privacy Policy to learn more. By continuing to use the site, you agree to this use of cookies and data.
EN

Hourly Weather Qala i Naw

Today, 10 July, Friday

Time Temperature Precipitation Wind Pressure Humidity
00:00 +24°C° 0 mm 2 mps 677 mmHg 29%
01:00 +23°C° 0 mm 1 mps 677 mmHg 31%
02:00 +23°C° 0 mm 1 mps 677 mmHg 32%
03:00 +22°C° 0 mm 1 mps 676 mmHg 33%
04:00 +22°C° 0 mm 1 mps 676 mmHg 35%
05:00 +25°C° 0 mm 2 mps 677 mmHg 30%
06:00 +27°C° 0 mm 3 mps 678 mmHg 26%
07:00 +30°C° 0 mm 3 mps 679 mmHg 22%
08:00 +32°C° 0 mm 5 mps 679 mmHg 20%
09:00 +34°C° 0 mm 6 mps 679 mmHg 18%
10:00 +37°C° 0 mm 8 mps 679 mmHg 15%
11:00 +38°C° 0 mm 9 mps 679 mmHg 14%
12:00 +39°C° 0 mm 10 mps 679 mmHg 13%
13:00 +39°C° 0 mm 10 mps 679 mmHg 12%
14:00 +39°C° 0 mm 10 mps 679 mmHg 12%
15:00 +39°C° 0 mm 10 mps 678 mmHg 12%
16:00 +39°C° 0 mm 10 mps 678 mmHg 12%
17:00 +38°C° 0 mm 9 mps 678 mmHg 14%
18:00 +35°C° 0 mm 7 mps 678 mmHg 16%
19:00 +33°C° 0 mm 6 mps 679 mmHg 17%
20:00 +30°C° 0 mm 5 mps 678 mmHg 19%
21:00 +29°C° 0 mm 4 mps 678 mmHg 22%
22:00 +27°C° 0 mm 2 mps 678 mmHg 24%
23:00 +26°C° 0 mm 2 mps 677 mmHg 25%

Tomorrow, 11 July, Saturday

Time Temperature Precipitation Wind Pressure Humidity
00:00 +25°C° 0 mm 2 mps 677 mmHg 27%
01:00 +24°C° 0 mm 1 mps 677 mmHg 28%
02:00 +23°C° 0 mm 1 mps 677 mmHg 29%
03:00 +23°C° 0 mm 1 mps 677 mmHg 31%
04:00 +22°C° 0 mm 1 mps 676 mmHg 32%
05:00 +24°C° 0 mm 1 mps 677 mmHg 29%
06:00 +26°C° 0 mm 1 mps 678 mmHg 25%
07:00 +29°C° 0 mm 2 mps 679 mmHg 21%
08:00 +32°C° 0 mm 4 mps 679 mmHg 20%
09:00 +33°C° 0 mm 6 mps 679 mmHg 18%
10:00 +35°C° 0 mm 8 mps 679 mmHg 17%
11:00 +37°C° 0 mm 9 mps 679 mmHg 17%
12:00 +37°C° 0 mm 10 mps 679 mmHg 18%
13:00 +37°C° 0 mm 10 mps 679 mmHg 18%
14:00 +37°C° 0 mm 10 mps 678 mmHg 18%
15:00 +37°C° 0 mm 9 mps 678 mmHg 17%
16:00 +37°C° 0 mm 8 mps 678 mmHg 16%
17:00 +34°C° 0 mm 8 mps 678 mmHg 18%
18:00 +33°C° 0 mm 7 mps 678 mmHg 19%
19:00 +30°C° 0 mm 6 mps 678 mmHg 20%
20:00 +28°C° 0 mm 4 mps 677 mmHg 24%
21:00 +26°C° 0 mm 2 mps 677 mmHg 27%
22:00 +23°C° 0 mm 1 mps 677 mmHg 31%
23:00 +23°C° 0 mm 1 mps 677 mmHg 32%

Day after tomorrow, 12 July, Sunday

Time Temperature Precipitation Wind Pressure Humidity
00:00 +22°C° 0 mm 1 mps 676 mmHg 33%
01:00 +22°C° 0 mm 1 mps 676 mmHg 34%
02:00 +21°C° 0 mm 1 mps 676 mmHg 36%
03:00 +21°C° 0 mm 1 mps 675 mmHg 37%
04:00 +20°C° 0 mm 1 mps 675 mmHg 39%
05:00 +23°C° 0 mm 1 mps 675 mmHg 34%
06:00 +25°C° 0 mm 1 mps 676 mmHg 30%
07:00 +27°C° 0 mm 2 mps 677 mmHg 25%
08:00 +29°C° 0 mm 3 mps 677 mmHg 23%
09:00 +32°C° 0 mm 5 mps 677 mmHg 20%
10:00 +34°C° 0 mm 7 mps 677 mmHg 18%
11:00 +35°C° 0 mm 8 mps 677 mmHg 17%
12:00 +37°C° 0 mm 9 mps 677 mmHg 15%
13:00 +38°C° 0 mm 10 mps 677 mmHg 14%
14:00 +38°C° 0 mm 10 mps 677 mmHg 14%
15:00 +38°C° 0 mm 10 mps 677 mmHg 14%
16:00 +38°C° 0 mm 9 mps 676 mmHg 14%
17:00 +35°C° 0 mm 8 mps 676 mmHg 16%
18:00 +33°C° 0 mm 6 mps 676 mmHg 19%
19:00 +30°C° 0 mm 5 mps 676 mmHg 22%
20:00 +29°C° 0 mm 4 mps 676 mmHg 25%
21:00 +27°C° 0 mm 3 mps 676 mmHg 28%
22:00 +25°C° 0 mm 2 mps 675 mmHg 32%
23:00 +24°C° 0 mm 2 mps 675 mmHg 34%

13 July, Monday

Time Temperature Precipitation Wind Pressure Humidity
00:00 +23°C° 0 mm 1 mps 674 mmHg 37%
01:00 +22°C° 0 mm 1 mps 674 mmHg 39%
02:00 +20°C° 0 mm 0 mps 674 mmHg 40%
03:00 +19°C° 0 mm 0 mps 674 mmHg 42%
04:00 +19°C° 0 mm 0 mps 673 mmHg 43%
05:00 +23°C° 0 mm 1 mps 674 mmHg 38%
06:00 +26°C° 0 mm 1 mps 675 mmHg 32%
07:00 +28°C° 0 mm 1 mps 675 mmHg 27%
08:00 +30°C° 0 mm 2 mps 676 mmHg 25%
09:00 +33°C° 0 mm 4 mps 676 mmHg 22%
10:00 +35°C° 0 mm 5 mps 676 mmHg 20%
11:00 +36°C° 0 mm 6 mps 676 mmHg 18%
12:00 +38°C° 0 mm 6 mps 675 mmHg 17%
13:00 +39°C° 0 mm 7 mps 675 mmHg 15%
14:00 +39°C° 0 mm 7 mps 675 mmHg 14%
15:00 +40°C° 0 mm 7 mps 675 mmHg 14%
16:00 +40°C° 0 mm 7 mps 674 mmHg 13%
17:00 +38°C° 0 mm 6 mps 674 mmHg 15%
18:00 +35°C° 0 mm 5 mps 674 mmHg 16%
19:00 +33°C° 0 mm 5 mps 674 mmHg 18%
20:00 +30°C° 0 mm 4 mps 674 mmHg 20%
21:00 +28°C° 0 mm 3 mps 674 mmHg 22%
22:00 +26°C° 0 mm 2 mps 674 mmHg 24%
23:00 +26°C° 0 mm 2 mps 674 mmHg 24%

14 July, Tuesday

Time Temperature Precipitation Wind Pressure Humidity
00:00 +25°C° 0 mm 1 mps 674 mmHg 25%
01:00 +24°C° 0 mm 1 mps 674 mmHg 25%
02:00 +24°C° 0 mm 1 mps 674 mmHg 26%
03:00 +23°C° 0 mm 1 mps 674 mmHg 27%
04:00 +22°C° 0 mm 1 mps 674 mmHg 28%
05:00 +25°C° 0 mm 1 mps 675 mmHg 24%
06:00 +26°C° 0 mm 0 mps 675 mmHg 21%
07:00 +28°C° 0 mm 0 mps 676 mmHg 17%
08:00 +32°C° 0 mm 1 mps 677 mmHg 16%
09:00 +35°C° 0 mm 2 mps 677 mmHg 15%
10:00 +37°C° 0 mm 3 mps 677 mmHg 14%
11:00 +38°C° 0 mm 4 mps 677 mmHg 13%
12:00 +40°C° 0 mm 5 mps 677 mmHg 12%
13:00 +41°C° 0 mm 6 mps 677 mmHg 12%
14:00 +41°C° 0 mm 6 mps 677 mmHg 11%
15:00 +43°C° 0 mm 7 mps 677 mmHg 11%
16:00 +43°C° 0 mm 7 mps 676 mmHg 11%
17:00 +40°C° 0 mm 7 mps 676 mmHg 12%
18:00 +38°C° 0 mm 6 mps 677 mmHg 13%
19:00 +35°C° 0 mm 6 mps 677 mmHg 14%
20:00 +33°C° 0 mm 5 mps 677 mmHg 15%
21:00 +30°C° 0 mm 3 mps 677 mmHg 17%
22:00 +28°C° 0 mm 2 mps 677 mmHg 19%
23:00 +27°C° 0 mm 2 mps 677 mmHg 20%

15 July, Wednesday

Time Temperature Precipitation Wind Pressure Humidity
00:00 +26°C° 0 mm 1 mps 676 mmHg 21%
01:00 +25°C° 0 mm 1 mps 676 mmHg 21%
02:00 +24°C° 0 mm 1 mps 676 mmHg 22%
03:00 +24°C° 0 mm 1 mps 676 mmHg 23%
04:00 +23°C° 0 mm 1 mps 676 mmHg 23%
05:00 +26°C° 0 mm 1 mps 677 mmHg 20%
06:00 +29°C° 0 mm 1 mps 678 mmHg 17%
07:00 +29°C° 0 mm 0 mps 679 mmHg 14%
08:00 +33°C° 0 mm 1 mps 679 mmHg 13%
09:00 +36°C° 0 mm 2 mps 679 mmHg 12%
10:00 +37°C° 0 mm 3 mps 679 mmHg 10%
11:00 +38°C° 0 mm 4 mps 679 mmHg 10%
12:00 +40°C° 0 mm 5 mps 679 mmHg 10%
13:00 +41°C° 0 mm 7 mps 679 mmHg 10%
14:00 +41°C° 0 mm 7 mps 678 mmHg 10%
15:00 +41°C° 0 mm 7 mps 678 mmHg 10%
16:00 +41°C° 0 mm 7 mps 678 mmHg 10%
17:00 +40°C° 0 mm 6 mps 678 mmHg 12%
18:00 +38°C° 0 mm 6 mps 678 mmHg 13%
19:00 +35°C° 0 mm 5 mps 678 mmHg 15%
20:00 +32°C° 0 mm 4 mps 677 mmHg 17%
21:00 +29°C° 0 mm 2 mps 677 mmHg 18%
22:00 +27°C° 0 mm 1 mps 677 mmHg 20%
23:00 +26°C° 0 mm 1 mps 677 mmHg 21%
Show more